Weather History for Las Vegas, NM

Change the Weather History Date:

Friday, September 13, 2013

  Actual Average Record
Temperature  
Mean Temperature 55 °F -  
Max Temperature 59 °F 73 °F 89 °F (1956)
Min Temperature 51 °F 45 °F 36 °F (1959)
Degree Days  
Heating Degree Days 10    
Growing Degree Days 5 (Base 50)    
Moisture  
Dew Point 54 °F    
Average Humidity 95    
Maximum Humidity 100    
Minimum Humidity 87    
Precipitation  
Precipitation 0.37 in - - ()
Sea Level Pressure  
Sea Level Pressure 30.15 in    
Wind  
Wind Speed 13 mph (South)    
Max Wind Speed 21 mph    
Max Gust Speed 26 mph    
Visibility 7 miles    
Events Fog , Rain    
Averages and records for this station are not official NWS values.
T = Trace of Precipitation, MM = Missing Value Source: NWS Daily Summary

Daily Weather History Graph

Daily Weather History Graph

Search for Another Location

Airport:

Trip Planner

Search our weather history database for the weather conditions in past years. The results will help you decide how hot, cold, wet, or windy it might be!

Date:

Astronomy

Sep. 13, 2013 Rise Set
Actual Time 6:41 AM MDT 7:10 PM MDT
Civil Twilight 6:16 AM MDT 7:35 PM MDT
Nautical Twilight 5:46 AM MDT 8:05 PM MDT
Astronomical Twilight 5:15 AM MDT 8:36 PM MDT
Moon 2:53 PM MDT (9/13) 12:22 AM MDT (9/13)
Length of Visible Light 13h 19m
Length of Day
12h 28m
Waxing Gibbous, 62% of the Moon is Illuminated
Sep 13
Waxing Gibbous
Sep 19
Full
Sep 26
Last Quarter
Oct 4
New
Oct 11
First Quarter

Hourly Weather History & Observations

Time (MDT) Temp. Dew Point Humidity Pressure Visibility Wind Dir Wind Speed Gust Speed Precip Events Conditions
12:23 AM 55.4 °F 55.4 °F 100% 30.31 in 6.0 mi SSE 9.2 mph - 0.02 in Rain Light Rain
12:45 AM 55.4 °F 55.4 °F 100% 30.30 in 5.0 mi SSE 13.8 mph - 0.02 in Rain Light Rain
12:53 AM 55.9 °F 54.0 °F 93% 30.06 in 3.0 mi South 15.0 mph - 0.04 in Rain Rain
1:22 AM 55.4 °F 53.6 °F 94% 30.29 in 7.0 mi SSE 18.4 mph - 0.01 in Rain Light Rain
1:53 AM 55.0 °F 54.0 °F 96% 30.04 in 6.0 mi SSE 16.1 mph 21.9 mph 0.01 in Rain Light Rain
1:56 AM 55.4 °F 53.6 °F 94% 30.28 in 6.0 mi SSE 17.3 mph 21.9 mph 0.01 in Rain Light Rain
2:53 AM 55.0 °F 53.1 °F 93% 30.02 in 8.0 mi SSE 16.1 mph - 0.03 in Rain Light Rain
3:04 AM 55.4 °F 53.6 °F 94% 30.26 in 7.0 mi SSE 20.7 mph 26.5 mph 0.00 in Rain Light Rain
3:53 AM 55.0 °F 53.1 °F 93% 30.01 in 10.0 mi SSE 18.4 mph - 0.00 in   Overcast
4:12 AM 55.4 °F 53.6 °F 94% 30.25 in 7.0 mi SSE 16.1 mph - 0.01 in Rain Light Rain
4:39 AM 55.4 °F 53.6 °F 94% 30.25 in 9.0 mi SSE 15.0 mph - 0.02 in Rain Light Rain
4:53 AM 55.9 °F 54.0 °F 93% 30.00 in 4.0 mi SSE 12.7 mph - 0.03 in Rain Light Rain
5:53 AM 55.9 °F 55.0 °F 97% 30.00 in 10.0 mi South 10.4 mph - 0.00 in   Overcast
6:07 AM 55.4 °F 55.4 °F 100% 30.24 in 10.0 mi South 10.4 mph - N/A   Overcast
6:53 AM 55.9 °F 55.0 °F 97% 30.01 in 10.0 mi SSE 15.0 mph - N/A   Overcast
7:38 AM 57.2 °F 55.4 °F 94% 30.25 in 10.0 mi South 15.0 mph - N/A   Overcast
7:49 AM 57.2 °F 55.4 °F 94% 30.25 in 10.0 mi South 13.8 mph - N/A   Overcast
7:53 AM 57.0 °F 55.9 °F 96% 30.01 in 10.0 mi South 15.0 mph - N/A   Overcast
8:06 AM 57.2 °F 55.4 °F 94% 30.26 in 10.0 mi South 12.7 mph - N/A   Overcast
8:53 AM 57.9 °F 55.9 °F 93% 30.01 in 10.0 mi South 13.8 mph - N/A   Overcast
9:02 AM 57.2 °F 55.4 °F 94% 30.27 in 10.0 mi South 16.1 mph 23.0 mph N/A   Overcast
9:19 AM 57.2 °F 55.4 °F 94% 30.27 in 10.0 mi South 19.6 mph - N/A   Mostly Cloudy
9:26 AM 57.2 °F 55.4 °F 94% 30.27 in 10.0 mi South 18.4 mph - N/A   Overcast
9:38 AM 57.2 °F 55.4 °F 94% 30.27 in 10.0 mi SSW 20.7 mph 24.2 mph N/A   Overcast
9:49 AM 59.0 °F 55.4 °F 88% 30.28 in 10.0 mi SSW 20.7 mph 26.5 mph N/A   Mostly Cloudy
9:53 AM 59.0 °F 55.0 °F 87% 30.03 in 10.0 mi South 17.3 mph 26.5 mph N/A   Mostly Cloudy
10:02 AM 59.0 °F 55.4 °F 88% 30.28 in 10.0 mi South 16.1 mph 25.3 mph N/A   Mostly Cloudy
10:28 AM 57.2 °F 55.4 °F 94% 30.28 in 10.0 mi SSW 16.1 mph - 0.00 in Rain Light Rain
10:36 AM 57.2 °F 55.4 °F 94% 30.28 in 10.0 mi SSW 15.0 mph - 0.00 in Rain Light Rain
10:53 AM 57.9 °F 55.0 °F 90% 30.03 in 8.0 mi South 13.8 mph - 0.01 in Rain Light Rain
11:50 AM 55.4 °F 53.6 °F 94% 30.28 in 2.5 mi SW 20.7 mph 26.5 mph 0.05 in Rain Heavy Rain
11:53 AM 54.0 °F 52.0 °F 93% 30.05 in 2.5 mi SSW 17.3 mph 26.5 mph 0.06 in Rain Heavy Rain
12:04 PM 53.6 °F 51.8 °F 94% 30.28 in 5.0 mi SSW 18.4 mph 25.3 mph 0.01 in Rain Light Rain
12:28 PM 55.4 °F 53.6 °F 94% 30.27 in 10.0 mi SW 13.8 mph 21.9 mph 0.03 in Rain Light Rain
12:53 PM 55.0 °F 52.0 °F 89% 30.04 in 10.0 mi SSW 10.4 mph - 0.03 in Rain Light Rain
1:53 PM 55.0 °F 53.1 °F 93% 30.02 in 6.0 mi South 12.7 mph - 0.02 in Rain Light Rain
2:03 PM 55.4 °F 53.6 °F 94% 30.24 in 5.0 mi South 11.5 mph - 0.02 in Rain Light Rain
2:18 PM 55.4 °F 53.6 °F 94% 30.24 in 2.5 mi South 11.5 mph - 0.04 in Rain Rain
2:23 PM 55.4 °F 53.6 °F 94% 30.24 in 3.0 mi South 11.5 mph - 0.04 in Rain Light Rain
2:48 PM 55.4 °F 53.6 °F 94% 30.23 in 2.0 mi SSW 3.5 mph - 0.07 in Rain Rain
2:49 PM 55.0 °F 54.0 °F 96% 30.00 in 2.0 mi SW 3.5 mph - 0.08 in Rain Light Rain
2:59 PM 55.4 °F 53.6 °F 94% 30.22 in 4.0 mi South 4.6 mph - 0.00 in Rain Light Rain
3:09 PM 55.4 °F 53.6 °F 94% 30.22 in 9.0 mi South 11.5 mph - 0.00 in Rain Light Rain
3:28 PM 55.4 °F 53.6 °F 94% 30.22 in 10.0 mi South 8.1 mph - 0.00 in Rain Light Rain
3:41 PM 55.4 °F 53.6 °F 94% 30.22 in 1.8 mi South 5.8 mph - 0.03 in Rain Rain
3:53 PM 55.0 °F 54.0 °F 96% 29.99 in 2.5 mi SSW 4.6 mph - 0.05 in Rain Light Rain
4:09 PM 55.4 °F 53.6 °F 94% 30.22 in 6.0 mi SSW 6.9 mph - 0.00 in Rain Light Rain
4:25 PM 55.4 °F 53.6 °F 94% 30.21 in 10.0 mi South 10.4 mph - 0.00 in   Overcast
4:53 PM 55.9 °F 54.0 °F 93% 29.97 in 10.0 mi South 10.4 mph - 0.00 in   Overcast
5:14 PM 55.4 °F 53.6 °F 94% 30.20 in 10.0 mi SSW 12.7 mph - N/A   Overcast
5:53 PM 55.9 °F 54.0 °F 93% 29.96 in 10.0 mi SSW 16.1 mph - N/A   Mostly Cloudy
6:00 PM 55.4 °F 53.6 °F 94% 30.19 in 10.0 mi SSW 16.1 mph - N/A   Mostly Cloudy
6:53 PM 55.9 °F 54.0 °F 93% 29.95 in 10.0 mi SSW 11.5 mph - N/A   Clear
7:53 PM 55.0 °F 54.0 °F 96% 29.95 in 10.0 mi SW 8.1 mph - N/A   Clear
8:53 PM 54.0 °F 53.1 °F 97% 29.97 in 10.0 mi South 10.4 mph - N/A   Clear
9:12 PM 53.6 °F 53.6 °F 100% 30.21 in 2.5 mi South 10.4 mph - 0.01 in   Partly Cloudy
9:16 PM 53.6 °F 53.6 °F 100% 30.21 in 1.0 mi SSE 9.2 mph - 0.01 in   Mist
9:20 PM 53.6 °F 53.6 °F 100% 30.20 in 0.2 mi South 6.9 mph - 0.01 in Fog Fog
9:40 PM 53.6 °F 51.8 °F 94% 30.20 in 1.0 mi SSW 5.8 mph - 0.01 in   Mist
9:50 PM 51.8 °F 51.8 °F 100% 30.20 in 1.8 mi South 6.9 mph - 0.01 in   Scattered Clouds
9:53 PM 53.1 °F 52.0 °F 96% 29.96 in 1.8 mi South 5.8 mph - 0.01 in   Partly Cloudy
9:56 PM 53.6 °F 51.8 °F 94% 30.20 in 4.0 mi South 6.9 mph - N/A   Partly Cloudy
10:53 PM 53.1 °F 53.1 °F 100% 29.98 in 7.0 mi South 6.9 mph - N/A   Clear
11:53 PM 53.1 °F 52.0 °F 96% 29.99 in 10.0 mi SSW 6.9 mph - N/A   Clear